Station CLSM4 - St. Clair Shores, MI Image indicating link to RSS feed of recent meteorological observations for station CLSM4


Conditions at CLSM4 as of
(10:00 am EDT)
1400 GMT on 07/23/2024:
     

Click on the graph icon in the table below to see a time series plot of the last five days of that observation.

5-day plot - Wind Direction Wind Direction (WDIR): SE ( 140 deg true )
5-day plot - Wind Speed Wind Speed (WSPD): 7.0 kts
5-day plot - Wind Gust Wind Gust (GST): 8.9 kts
5-day plot - Atmospheric Pressure Atmospheric Pressure (PRES):30.06 in
5-day plot - Pressure Tendency Pressure Tendency (PTDY):+0.03 in ( Rising )
5-day plot - Air Temperature Air Temperature (ATMP): 75.7 °F
5-day plot - Wind Speed at 10 Meters Wind Speed at 10 meters (WSPD10M): 7.8 kts
5-day plot - Wind Speed at 20 Meters Wind Speed at 20 meters (WSPD20M): 7.8 kts
5-day plot -  Wind Speed, Wind Gust and Atmospheric Pressure Combined plot of Wind Speed, Gust, and Air Pressure
Previous observations
TIME
(EDT)
5-day plot - Wind Direction
WDIR
 
5-day plot - Wind Speed
WSPD
kts
5-day plot - Wind Gust
GST
kts
5-day plot - Wave Height
WVHT
ft
5-day plot - Dominant Wave Period
DPD
sec
5-day plot - Average Wave Period
APD
sec
5-day plot - Mean Wave Direction
MWD
 
5-day plot - Atmospheric Pressure
PRES
in
5-day plot - Pressure Tendency
PTDY
in
5-day plot - Air Temperature
ATMP
°F
5-day plot - Water Temperature
WTMP
°F
5-day plot - Dew Point
DEWP
°F
5-day plot - Salinity
SAL
psu
5-day plot - Visibility
VIS
nmi
5-day plot - Tide (above MLLW)
TIDE
ft
2024-07-23 09:50 am SE 6.0 7.0----30.06- 74.8-----
2024-07-23 09:40 am SE 6.0 7.0----30.06- 74.8-----
2024-07-23 09:30 am SE 5.1 6.0----30.06- 74.3-----
2024-07-23 09:20 amESE 2.9 5.1----30.06- 74.7-----
2024-07-23 09:10 am S 1.9 5.1----30.06- 77.2-----
2024-07-23 09:00 amSSE 2.9 4.1----30.06+0.03 76.8-----
2024-07-23 08:50 am S 1.9 2.9----30.06- 76.5-----
2024-07-23 08:40 am- 0.0 2.9----30.06- 74.3-----
2024-07-23 08:30 am SW 1.9 4.1----30.06- 73.4-----
2024-07-23 08:20 am SW 2.9 4.1----30.06- 73.0-----
2024-07-23 08:10 am W 1.0 2.9----30.05- 72.3-----
2024-07-23 08:00 amWSW 1.9 2.9----30.05+0.03 71.4-----
2024-07-23 07:50 amWSW 1.9 2.9----30.04- 71.2-----
2024-07-23 07:40 am- 0.0 4.1----30.04- 70.9-----
2024-07-23 07:30 amWSW 1.9 4.1----30.04- 70.3-----
2024-07-23 07:20 am SW 1.9 2.9----30.03- 70.2-----
2024-07-23 07:10 am SW 1.0 1.9----30.03- 69.6-----
2024-07-23 07:00 am- 0.0 1.9----30.03+0.01 68.9-----
2024-07-23 06:50 amWSW 1.0 1.9----30.03- 68.7-----
2024-07-23 06:40 amWSW 1.9 1.9----30.03- 69.1-----
2024-07-23 06:30 am SW 1.0 1.9----30.03- 69.3-----
2024-07-23 06:20 am SW 1.0 2.9----30.03- 69.1-----
2024-07-23 06:10 amSSW 1.0 2.9----30.03- 69.1-----
2024-07-23 06:00 amWSW 2.9 4.1----30.03+0.00 69.3-----
2024-07-23 05:50 amSSW 2.9 4.1----30.03- 69.3-----
2024-07-23 05:40 amWSW 2.9 2.9----30.03- 69.3-----
2024-07-23 05:30 am W 2.9 2.9----30.02- 68.9-----
2024-07-23 05:20 amWSW 2.9 4.1----30.02- 69.1-----
2024-07-23 05:10 am W 2.9 4.1----30.02- 69.3-----
2024-07-23 05:00 am SW 2.9 5.1----30.02-0.01 69.4-----
2024-07-23 04:50 am SW 1.9 4.1----30.02- 69.6-----
2024-07-23 04:40 am SW 2.9 5.1----30.02- 69.8-----
2024-07-23 04:30 amSSW 4.1 5.1----30.02- 69.8-----
2024-07-23 04:20 amSSW 2.9 5.1----30.02- 70.0-----
2024-07-23 04:10 am SW 2.9 6.0----30.02- 70.0-----
2024-07-23 04:00 am SW 4.1 6.0----30.02-0.01 70.0-----
2024-07-23 03:50 am SW 4.1 5.1----30.02- 70.2-----
2024-07-23 03:40 am SW 2.9 4.1----30.02- 70.2-----
2024-07-23 03:30 amSSW 2.9 5.1----30.03- 70.2-----
2024-07-23 03:20 am SW 4.1 6.0----30.03- 70.3-----
2024-07-23 03:10 am SW 2.9 6.0----30.03- 70.7-----
2024-07-23 03:00 amSSW 4.1 5.1----30.03+0.00 71.1-----
2024-07-23 02:50 amSSW 2.9 5.1----30.03- 71.2-----
2024-07-23 02:40 am S 4.1 5.1----30.03- 71.2-----
2024-07-23 02:30 am S 2.9 4.1----30.02- 71.1-----
2024-07-23 02:20 amSSW 1.9 2.9----30.03- 71.1-----
2024-07-23 02:10 am SW 1.9 2.9----30.03- 71.2-----
2024-07-23 02:00 amWSW 1.9 2.9----30.03+0.01 71.2-----
2024-07-23 01:50 am SW 1.9 2.9----30.03- 71.4-----
2024-07-23 01:40 am SW 1.9 2.9----30.03- 71.8-----
2024-07-23 01:30 amSSW 2.9 4.1----30.03- 71.8-----
2024-07-23 01:20 amSSW 2.9 5.1----30.03- 71.8-----
2024-07-23 01:10 amSSW 2.9 4.1----30.02- 72.1-----
2024-07-23 01:00 am SW 1.9 2.9----30.03+0.01 72.3-----
2024-07-23 12:50 am SW 1.9 1.9----30.03- 72.3-----
2024-07-23 12:40 am- 0.0 2.9----30.03- 72.3-----
2024-07-23 12:30 am- 0.0 1.9----30.03- 72.5-----
2024-07-23 12:20 am- 0.0 1.0----30.03- 72.5-----
2024-07-23 12:10 am- 0.0 1.0----30.02- 72.7-----
2024-07-23 12:00 am- 0.0 1.9----30.03+0.03 72.3-----
2024-07-22 11:50 pm- 0.0 1.9----30.03- 72.3-----
2024-07-22 11:40 pmSSW 1.0 1.9----30.03- 72.5-----
2024-07-22 11:30 pm- 0.0 1.0----30.03- 72.7-----
2024-07-22 11:20 pm- 0.0 0.0----30.03- 72.5-----
2024-07-22 11:10 pm- 0.0 0.0----30.02- 72.1-----
2024-07-22 11:00 pm- 0.0 1.9----30.02+0.02 72.3-----
2024-07-22 10:50 pm W 1.9 1.9----30.03- 72.5-----
2024-07-22 10:40 pm SW 1.0 2.9----30.03- 72.7-----
2024-07-22 10:30 pm SW 1.9 2.9----30.03- 73.0-----
2024-07-22 10:20 pm SW 1.9 1.9----30.02- 73.2-----
2024-07-22 10:10 pmSSW 1.9 2.9----30.02- 73.4-----
2024-07-22 10:00 pmSSW 1.9 2.9----30.02+0.02 73.8-----
2024-07-22 09:50 pmWSW 1.9 1.9----30.01- 73.9-----
2024-07-22 09:40 pm- 0.0 1.9----30.01- 73.8-----
2024-07-22 09:30 pm- 0.0 1.0----30.00- 73.9-----
2024-07-22 09:20 pmSSW 1.9 2.9----30.00- 73.9-----
2024-07-22 09:10 pmSSW 1.9 1.9----30.00- 73.9-----
2024-07-22 09:00 pm SW 1.0 1.9----30.00-0.01 73.9-----
2024-07-22 08:50 pm- 0.0 4.1----30.00- 74.1-----
2024-07-22 08:40 pmSSW 2.9 4.1----30.00- 74.3-----
2024-07-22 08:30 pm W 1.9 2.9----30.01- 74.1-----
2024-07-22 08:20 pmWSW 2.9 4.1----30.01- 74.5-----
2024-07-22 08:10 pmWSW 1.9 4.1----30.00- 74.7-----
2024-07-22 08:00 pmSSW 1.9 4.1----30.00-0.01 74.8-----
2024-07-22 07:50 pm SW 2.9 4.1----30.00- 74.7-----
2024-07-22 07:40 pm SW 1.9 4.1----29.99- 74.5-----
2024-07-22 07:30 pm SW 2.9 4.1----30.00- 74.5-----
2024-07-22 07:20 pmWSW 2.9 4.1----30.00- 74.5-----
2024-07-22 07:10 pm SW 2.9 5.1----30.00- 74.3-----
2024-07-22 07:00 pmSSW 2.9 6.0----30.00-0.02 74.1-----
2024-07-22 06:50 pm SW 4.1 7.0----30.01- 74.1-----
2024-07-22 06:40 pm SW 6.0 8.0----30.01- 73.9-----
2024-07-22 06:30 pmSSW 5.1 8.9----30.01- 74.1-----
2024-07-22 06:20 pmSSW 6.0 8.9----30.01- 74.7-----
2024-07-22 06:10 pm S 5.1 8.9----30.01- 75.2-----
2024-07-22 06:00 pmSSW 5.1 7.0----30.01-0.02 75.0-----
2024-07-22 05:50 pm S 5.1 6.0----30.01- 75.4-----
2024-07-22 05:40 pm S 2.9 7.0----30.01- 75.4-----
2024-07-22 05:30 pmSSE 5.1 8.0----30.01- 75.0-----
2024-07-22 05:20 pmSSE 6.0 8.9----30.01- 75.0-----
2024-07-22 05:10 pm S 5.1 8.0----30.01- 75.2-----
2024-07-22 05:00 pm S 6.0 8.0----30.01-0.02 75.9-----
2024-07-22 04:50 pmSSE 5.1 7.0----30.01- 75.9-----
2024-07-22 04:40 pm S 4.1 6.0----30.01- 76.3-----
2024-07-22 04:30 pm S 4.1 5.1----30.01- 76.3-----
2024-07-22 04:20 pm S 4.1 5.1----30.02- 76.1-----
2024-07-22 04:10 pmSSE 5.1 6.0----30.02- 75.7-----
2024-07-22 04:00 pm SE 4.1 5.1----30.02-0.02 76.1-----
2024-07-22 03:50 pmSSE 4.1 5.1----30.02- 76.3-----
2024-07-22 03:40 pmSSE 4.1 6.0----30.03- 75.9-----
2024-07-22 03:30 pmSSE 2.9 6.0----30.02- 75.6-----
2024-07-22 03:20 pmSSE 5.1 7.0----30.03- 75.6-----
2024-07-22 03:10 pmSSE 6.0 6.0----30.03- 75.4-----
2024-07-22 03:00 pm SE 4.1 5.1----30.03-0.03 75.0-----
2024-07-22 02:50 pm E 4.1 4.1----30.03- 74.8-----
2024-07-22 02:40 pm E 2.9 5.1----30.03- 74.8-----
2024-07-22 02:30 pm E 4.1 5.1----30.02- 74.7-----
2024-07-22 02:20 pm E 4.1 5.1----30.03- 74.5-----
2024-07-22 02:10 pmENE 4.1 5.1----30.02- 74.5-----
2024-07-22 02:00 pm E 4.1 5.1----30.03-0.04 74.1-----
2024-07-22 01:50 pm E 4.1 5.1----30.03- 74.1-----
2024-07-22 01:40 pm E 2.9 4.1----30.03- 74.1-----
2024-07-22 01:30 pm E 2.9 4.1----30.03- 74.1-----
2024-07-22 01:20 pm E 2.9 4.1----30.04- 74.7-----
2024-07-22 01:10 pmENE 2.9 2.9----30.04- 74.3-----
2024-07-22 01:00 pmENE 2.9 4.1----30.04-0.02 73.9-----
2024-07-22 12:50 pm NE 2.9 4.1----30.04- 73.9-----
2024-07-22 12:40 pm NE 2.9 5.1----30.04- 73.9-----
2024-07-22 12:30 pmENE 2.9 4.1----30.05- 73.8-----
2024-07-22 12:20 pmENE 2.9 4.1----30.05- 73.8-----
2024-07-22 12:10 pmENE 2.9 4.1----30.06- 73.4-----
2024-07-22 12:00 pm NE 2.9 4.1----30.06-0.01 73.8-----
2024-07-22 11:50 amENE 2.9 4.1----30.06- 73.6-----
2024-07-22 11:40 amENE 2.9 4.1----30.06- 73.4-----
2024-07-22 11:30 am NE 4.1 5.1----30.06- 73.2-----
2024-07-22 11:20 am NE 4.1 5.1----30.06- 73.0-----
2024-07-22 11:10 am NE 4.1 5.1----30.06- 73.0-----
2024-07-22 11:00 am NE 4.1 4.1----30.07+0.01 73.2-----
2024-07-22 10:50 am NE 2.9 4.1----30.07- 72.9-----
2024-07-22 10:40 amNNE 2.9 5.1----30.07- 72.5-----
2024-07-22 10:30 amNNE 4.1 5.1----30.06- 72.3-----
2024-07-22 10:20 amNNE 4.1 5.1----30.06- 72.1-----
2024-07-22 10:10 amNNE 4.1 5.1----30.06- 72.0-----
2024-07-22 10:00 am NE 4.1 6.0----30.06-0.01 71.6-----
2024-07-22 09:50 am NE 4.1 5.1----30.06- 71.2-----